Weather History for Dubuque, IA

Change the Weather History Date:

Monday, August 26, 2013

  Actual Average Record
Temperature  
Mean Temperature 78 °F 69 °F  
Max Temperature 89 °F 79 °F 95 °F (2003)
Min Temperature 66 °F 59 °F 44 °F (1964)
Degree Days  
Heating Degree Days 0 1  
Month to date heating degree days 10 11  
Since 1 June heating degree days 71 59  
Since 1 July heating degree days 32 19  
Cooling Degree Days 13 5  
Month to date cooling degree days 118 155  
Year to date cooling degree days 470 555  
Since 1 June cooling degree days 425 518  
Growing Degree Days 28 (Base 50)    
Moisture  
Dew Point 70 °F    
Average Humidity 76    
Maximum Humidity 93    
Minimum Humidity 59    
Precipitation  
Precipitation 0.00 in 0.13 in 2.08 in (1987)
Month to date precipitation 2.72 3.72  
Year to date precipitation 30.43 25.30  
Snow  
Snow 0.00 in 0.00 in - ()
Month to date snowfall 0.0 0.0  
Since 1 June snowfall 0.0 0.0  
Since 1 July snowfall 0.0 0.0  
Snow Depth 0.00 in    
Sea Level Pressure  
Sea Level Pressure 30.06 in    
Wind  
Wind Speed 9 mph (SSW)    
Max Wind Speed 15 mph    
Max Gust Speed 18 mph    
Visibility 10 miles    
Events      
T = Trace of Precipitation, MM = Missing Value Source: NWS Daily Summary

Daily Weather History Graph

Daily Weather History Graph

Search for Another Location

Airport:

Trip Planner

Search our weather history database for the weather conditions in past years. The results will help you decide how hot, cold, wet, or windy it might be!

Date:

Astronomy

Aug. 26, 2013 Rise Set
Actual Time 6:21 AM CDT 7:46 PM CDT
Civil Twilight 5:52 AM CDT 8:15 PM CDT
Nautical Twilight 5:17 AM CDT 8:50 PM CDT
Astronomical Twilight 4:39 AM CDT 9:28 PM CDT
Moon 10:48 PM CDT (8/26) 12:31 PM CDT (8/26)
Length of Visible Light 14h 23m
Length of Day
13h 24m
Waning Gibbous, 66% of the Moon is Illuminated
Aug 26
Waning Gibbous
Aug 28
Last Quarter
Sep 5
New
Sep 12
First Quarter
Sep 19
Full

Hourly Weather History & Observations

Time (CDT) Temp. Heat Index Dew Point Humidity Pressure Visibility Wind Dir Wind Speed Gust Speed Precip Events Conditions
12:53 AM 70.0 °F - 66.9 °F 90% 30.11 in 10.0 mi SSW 11.5 mph - N/A   Clear
1:53 AM 70.0 °F - 66.9 °F 90% 30.10 in 10.0 mi SSW 11.5 mph - N/A   Clear
2:53 AM 70.0 °F - 66.0 °F 87% 30.10 in 10.0 mi SSW 10.4 mph - N/A   Clear
3:53 AM 69.1 °F - 64.9 °F 87% 30.10 in 10.0 mi SW 10.4 mph - N/A   Clear
4:53 AM 68.0 °F - 64.9 °F 90% 30.10 in 10.0 mi SSW 10.4 mph - N/A   Clear
5:53 AM 66.9 °F - 64.9 °F 93% 30.10 in 9.0 mi SW 8.1 mph - N/A   Clear
6:53 AM 66.0 °F - 64.9 °F 96% 30.12 in 7.0 mi SW 6.9 mph - N/A   Clear
7:53 AM 69.1 °F - 66.0 °F 90% 30.13 in 8.0 mi South 6.9 mph - N/A   Clear
8:53 AM 73.0 °F - 68.0 °F 84% 30.12 in 8.0 mi SW 9.2 mph - N/A   Clear
9:53 AM 78.1 °F - 70.0 °F 76% 30.12 in 9.0 mi SW 11.5 mph - N/A   Clear
10:53 AM 80.1 °F 83.8 °F 72.0 °F 76% 30.12 in 9.0 mi SW 9.2 mph - N/A   Clear
11:53 AM 82.9 °F 88.8 °F 73.0 °F 72% 30.09 in 10.0 mi SW 10.4 mph - N/A   Clear
12:53 PM 84.0 °F 91.2 °F 73.9 °F 72% 30.08 in 10.0 mi SSW 11.5 mph - N/A   Clear
1:53 PM 84.9 °F 93.3 °F 75.0 °F 72% 30.06 in 10.0 mi SSW 11.5 mph - N/A   Clear
2:53 PM 87.1 °F 95.4 °F 73.9 °F 65% 30.04 in 10.0 mi SW 9.2 mph - N/A   Clear
3:53 PM 88.0 °F 97.5 °F 75.0 °F 65% 30.02 in 10.0 mi SW 12.7 mph - N/A   Clear
4:53 PM 88.0 °F 95.6 °F 73.0 °F 61% 30.01 in 10.0 mi SW 13.8 mph - N/A   Clear
5:53 PM 87.1 °F 93.6 °F 72.0 °F 61% 30.00 in 10.0 mi SSW 10.4 mph - N/A   Clear
6:53 PM 82.9 °F 88.8 °F 73.0 °F 72% 29.99 in 10.0 mi SSW 6.9 mph - N/A   Clear
7:53 PM 79.0 °F - 71.1 °F 77% 29.98 in 10.0 mi SSW 5.8 mph - N/A   Clear
8:53 PM 75.9 °F - 71.1 °F 85% 29.99 in 10.0 mi SSW 5.8 mph - N/A   Clear
9:53 PM 73.9 °F - 71.1 °F 91% 29.99 in 10.0 mi SSW 6.9 mph - N/A   Clear
10:53 PM 73.9 °F - 71.1 °F 91% 29.98 in 10.0 mi South 6.9 mph - N/A   Clear
11:53 PM 73.9 °F - 70.0 °F 87% 29.98 in 10.0 mi South 6.9 mph - N/A   Clear